Location: Mahannah Oil Field
(37.4664°N, 96.6003°W)
Time: 03:47:00
(UTC+00:00)

Vanguard 2 - Pass Details

Date: 18 June 2021
Orbit: 552 x 2937 km, 32.9° (Epoch: 28 July)

Event Time Altitude Azimuth Distance (km) Brightness Sun altitude
Rises 05:31:55 0° 273° (W) 3,889 11.4 -27.7°
Reaches altitude 10° 05:35:37 10° 260° (W) 2,559 10.2 -27.9°
Enters shadow 05:36:44 14° 253° (WSW) 2,189 9.8 -28.0°
